Wind_Speed
32 32 33 33 33 33 33 34 35 36 37 38 39 40 40 40 40 40 40 39 39 39 38 38 38 37 37 37 36 36 36 36 36 36 37 37 38 38 39 40 41 43
34 34 34 34 34 34 35 36 37 39 40 40 41 41 41 40 40 40 39 39 39 39 39 38 38 38 37 37 36 36 35 35 35 35 35 35 36 36 37 38 39 40
34 34 34 34 35 36 38 39 40 41 41 41 41 41 40 40 39 39 39 39 39 39 39 38 38 38 38 37 37 36 36 35 35 35 35 35 35 36 36 37 37 38
34 34 35 35 37 38 40 41 42 42 42 41 41 40 40 40 40 40 39 39 38 38 37 37 37 37 37 36 36 36 36 36 36 36 36 37 37 38 38 39 39 40
35 35 36 37 39 41 42 43 43 43 43 41 40 40 40 40 40 40 40 39 38 38 37 37 37 37 37 36 36 37 37 37 37 38 38 39 39 40 40 40 41 41
37 37 38 40 42 43 44 44 45 44 42 41 40 40 40 40 40 40 40 39 38 38 38 37 37 37 37 38 38 39 39 39 39 39 40 40 40 40 40 41 41 41
38 39 41 43 44 45 45 44 43 42 41 40 40 40 40 40 40 39 39 38 37 37 37 37 37 37 38 38 38 39 39 40 40 40 40 40 40 40 41 41 41 42
40 41 43 45 45 45 44 42 41 41 40 41 41 41 40 39 39 38 37 36 36 36 36 36 37 37 38 38 38 38 38 39 39 39 40 40 40 41 41 42 42 43
41 43 44 45 44 43 42 41 41 41 41 41 41 40 40 39 38 37 36 36 36 36 36 36 37 37 37 37 37 37 37 38 38 38 39 40 41 41 42 42 43 43
42 42 43 43 43 43 42 42 42 42 42 41 41 40 39 38 37 36 36 36 36 36 36 37 37 37 37 37 37 37 37 37 38 38 39 40 41 41 42 43 43 44
42 42 42 42 43 43 42 42 42 42 42 41 40 39 38 37 36 35 35 35 35 36 36 36 36 36 36 36 36 36 36 37 38 39 39 40 41 41 42 42 43 43
41 41 41 42 43 43 42 42 42 41 41 39 38 37 36 35 35 35 35 35 35 35 35 35 35 35 35 35 35 36 37 37 38 39 40 40 40 41 41 42 42 42
41 41 42 43 42 41 40 40 40 40 40 39 38 37 36 35 35 34 34 34 34 34 34 34 33 34 34 35 35 36 37 38 39 39 40 40 40 41 41 41 41 41
42 42 42 41 41 40 39 39 39 40 39 38 37 36 36 35 35 34 33 33 33 33 33 32 33 34 34 35 36 37 38 38 39 39 40 40 40 40 40 41 41 42
41 41 40 39 39 38 38 39 39 40 39 38 37 36 36 35 34 33 33 33 32 32 32 32 33 34 35 36 37 38 38 39 39 40 40 40 40 40 40 41 42 42
41 39 38 38 38 37 38 39 39 39 38 37 36 36 36 35 34 33 33 32 32 32 32 33 34 35 36 37 38 39 39 40 40 41 41 41 41 41 41 41 42 43
41 39 37 37 37 37 38 39 38 38 37 36 36 36 36 35 34 33 33 32 32 33 33 35 36 36 37 38 39 40 40 41 41 42 42 42 42 42 42 43 43 45
40 38 37 36 37 37 38 38 37 37 36 36 36 36 36 35 34 34 33 33 34 34 35 36 37 38 38 39 40 41 41 42 42 42 43 42 43 43 43 44 45 46
39 38 37 37 38 38 38 37 36 36 36 36 36 36 36 35 35 34 34 35 35 36 37 38 38 39 40 40 41 42 42 43 43 43 43 43 43 43 44 46 47 48
38 38 38 38 38 37 35 35 35 35 36 36 36 36 36 36 36 35 35 36 37 38 38 39 40 40 41 41 42 43 43 43 43 43 43 43 43 44 45 47 48 49
38 38 38 38 36 34 34 34 35 35 36 36 37 37 37 37 37 36 36 37 38 39 40 41 41 42 42 42 43 43 43 43 43 43 43 43 44 45 46 48 49 50
38 37 36 34 33 33 34 34 35 35 36 36 37 37 38 38 37 37 37 38 39 40 41 42 42 42 42 42 43 43 43 42 42 42 43 43 44 46 47 49 49 50
35 34 33 33 33 33 34 34 35 35 36 37 37 37 38 37 37 37 38 39 40 41 41 42 42 42 41 41 42 42 42 42 42 42 43 44 46 47 48 49 49 50
32 32 32 32 33 33 34 35 35 35 36 36 37 37 37 37 37 37 38 39 40 41 41 41 41 40 40 40 40 41 42 42 42 43 44 45 47 48 49 50 50 50
31 31 32 32 33 34 34 34 34 35 35 36 36 37 37 37 37 38 39 40 40 40 41 40 40 39 39 39 40 40 41 42 42 44 45 47 48 49 50 50 51 52
30 31 32 33 34 34 34 34 34 35 35 35 35 36 36 37 38 38 39 39 39 39 39 39 39 38 38 39 39 40 41 42 43 45 47 48 49 50 50 51 52 53
Wind_Direction
271 272 273 276 278 281 285 288 291 293 295 297 298 298 298 298 297 297 296 296 296 297 297 298 298 297 297 296 295 294 292 291 290 289 288 287 285 283 282 280 279 279
271 273 275 278 281 285 289 292 295 297 298 299 298 298 297 296 296 296 297 298 299 300 301 301 302 302 301 300 299 298 296 295 293 291 290 288 287 285 283 282 280 279
272 274 277 281 285 289 293 296 298 299 298 298 297 296 296 297 298 299 301 302 303 304 304 304 303 303 302 301 300 299 298 297 295 293 292 290 289 287 286 285 283 282
274 276 280 285 289 292 295 297 299 299 298 298 298 298 300 301 302 303 304 305 305 304 304 303 302 301 300 299 298 297 296 294 293 292 291 290 289 288 288 287 286 286
276 279 283 288 292 295 298 299 300 300 299 300 301 302 303 304 305 305 306 305 305 304 303 301 300 299 298 297 296 295 294 294 293 292 292 291 291 291 291 291 290 290
278 282 286 291 295 297 299 300 299 299 299 301 302 303 304 305 305 305 304 304 303 303 302 300 299 298 297 297 296 296 296 296 295 295 294 294 294 294 294 294 294 294
280 285 290 294 296 298 298 298 298 298 300 302 303 304 304 304 303 303 303 302 301 300 299 298 297 296 295 295 295 294 294 295 295 295 295 295 295 295 295 295 294 294
284 288 292 295 296 297 297 297 298 300 302 303 304 304 303 303 302 302 301 300 299 298 296 295 294 293 293 293 293 292 292 292 293 293 293 294 294 294 294 293 293 292
287 290 293 295 296 297 297 298 300 303 304 304 304 303 302 301 301 301 300 299 298 296 295 294 294 293 293 293 293 293 293 293 293 293 293 293 293 293 292 292 292 292
287 290 292 294 296 297 298 300 302 303 303 303 301 300 299 300 300 299 298 297 296 295 294 294 294 294 294 294 294 294 294 294 294 294 294 293 293 293 292 292 292 292
286 289 292 294 295 296 297 298 301 301 300 299 298 298 298 298 298 297 296 295 295 294 294 294 294 295 295 295 295 296 296 296 295 295 295 294 294 294 293 293 293 293
286 289 291 292 293 293 293 296 298 298 298 298 297 298 298 298 297 297 296 295 294 294 294 295 295 296 296 296 297 297 297 297 297 296 296 296 296 295 295 295 295 295
286 288 288 288 288 289 291 294 295 297 297 297 298 297 297 297 297 297 296 295 295 295 295 295 295 296 297 297 298 299 299 299 299 298 298 297 297 296 296 297 297 298
284 284 284 284 286 288 291 293 294 296 296 296 296 296 296 296 297 297 296 295 295 295 295 295 295 296 298 299 300 300 300 300 300 299 299 298 298 298 298 298 299 299
280 280 281 283 285 288 290 292 294 295 295 295 295 295 296 297 298 298 296 295 295 294 294 294 296 298 299 301 301 302 302 301 301 300 299 299 299 299 299 299 300 300
278 279 281 283 285 287 289 291 293 293 294 294 294 295 296 297 298 298 297 295 293 293 293 295 297 299 300 301 302 302 302 302 301 300 300 299 299 299 300 300 301 302
276 278 280 282 284 287 289 290 292 292 292 293 294 295 297 298 299 298 296 294 292 293 294 295 297 298 299 300 301 301 301 301 301 300 299 299 300 300 301 301 302 303
275 277 280 282 284 287 288 289 290 291 292 293 294 296 296 298 298 297 295 293 292 292 293 294 296 297 298 299 299 300 300 300 300 299 299 300 300 301 302 302 303 304
275 277 280 282 284 286 287 288 290 291 292 293 294 295 296 297 297 296 293 292 292 292 293 294 295 296 297 298 298 299 299 298 298 299 299 301 301 302 303 304 305 306
276 278 280 282 284 285 286 287 289 290 292 293 294 295 296 296 296 294 292 292 291 292 292 293 294 295 296 297 298 298 298 298 298 299 300 301 302 303 304 304 306 307
277 278 279 281 282 284 285 287 289 290 291 292 294 294 295 295 294 293 292 291 291 291 292 292 294 295 296 297 297 297 297 297 298 299 301 301 302 303 303 305 306 307
276 277 278 280 282 283 285 287 288 289 291 292 293 293 293 293 293 292 291 291 291 291 292 293 295 296 297 297 297 297 297 297 298 299 300 301 302 303 304 305 306 307
275 276 278 280 281 283 284 285 287 289 290 290 291 291 291 292 291 291 291 291 291 292 293 295 296 297 298 298 297 297 297 297 298 299 300 301 302 304 305 306 307 308
274 276 277 279 280 281 282 284 286 287 288 288 289 289 290 291 291 291 291 292 294 295 296 297 298 298 298 298 297 297 296 297 298 299 301 302 303 305 306 308 309 309
274 275 276 277 278 279 281 283 284 285 285 286 287 289 290 290 291 291 293 295 297 298 299 299 300 300 299 298 297 296 296 297 298 300 302 303 304 306 308 309 310 311
274 275 275 275 276 277 279 281 281 282 284 285 287 288 289 291 292 294 295 297 299 300 301 301 301 301 300 298 297 296 296 297 299 301 302 303 305 307 309 310 312 312
Height
3134 3133 3132 3132 3130 3129 3128 3127 3126 3125 3123 3122 3121 3120 3118 3117 3116 3114 3113 3112 3110 3109 3107 3105 3104 3102 3101 3099 3098 3096 3095 3093 3092 3090 3089 3087 3085 3084 3082 3081 3079 3078
3130 3129 3128 3127 3126 3125 3124 3123 3122 3121 3119 3118 3117 3115 3114 3112 3111 3110 3108 3106 3105 3103 3101 3100 3098 3096 3095 3093 3092 3090 3089 3088 3086 3085 3083 3081 3080 3078 3077 3076 3074 3073
3125 3125 3124 3123 3122 3121 3120 3119 3118 3116 3115 3114 3112 3111 3109 3108 3106 3104 3103 3101 3099 3098 3096 3094 3093 3091 3089 3088 3086 3085 3083 3082 3080 3079 3077 3076 3074 3073 3071 3070 3069 3067
3121 3120 3120 3119 3117 3116 3115 3114 3113 3112 3110 3109 3107 3105 3104 3102 3101 3099 3098 3096 3095 3093 3092 3090 3088 3087 3085 3084 3082 3080 3079 3077 3076 3074 3073 3071 3069 3068 3066 3065 3063 3062
3117 3116 3115 3114 3113 3112 3110 3109 3108 3106 3105 3103 3101 3100 3098 3097 3096 3094 3093 3091 3090 3089 3087 3086 3084 3082 3081 3079 3078 3076 3074 3073 3071 3069 3068 3066 3064 3062 3061 3059 3058 3056
3112 3111 3110 3109 3108 3107 3105 3104 3103 3101 3100 3098 3097 3095 3094 3093 3091 3090 3089 3087 3086 3084 3083 3081 3079 3078 3076 3074 3073 3071 3069 3067 3065 3064 3062 3060 3058 3057 3055 3053 3052 3050
3108 3107 3106 3104 3103 3102 3100 3099 3098 3097 3095 3094 3093 3091 3090 3089 3087 3086 3085 3083 3082 3080 3078 3077 3075 3073 3071 3070 3068 3066 3064 3063 3061 3059 3057 3055 3054 3052 3050 3048 3047 3045
3103 3102 3100 3099 3098 3097 3096 3095 3094 3092 3091 3090 3088 3087 3086 3084 3083 3082 3080 3079 3077 3076 3074 3072 3070 3069 3067 3065 3064 3062 3060 3058 3056 3055 3053 3051 3049 3047 3046 3044 3042 3040
3098 3097 3095 3094 3093 3092 3091 3090 3089 3088 3087 3086 3084 3083 3081 3080 3079 3078 3076 3074 3073 3071 3069 3067 3066 3064 3062 3061 3059 3057 3055 3054 3052 3050 3048 3047 3045 3043 3041 3039 3037 3035
3093 3092 3091 3089 3088 3088 3087 3086 3085 3084 3083 3081 3080 3079 3077 3076 3075 3073 3072 3070 3068 3066 3064 3062 3061 3059 3058 3056 3054 3052 3051 3049 3047 3046 3044 3042 3040 3038 3036 3034 3032 3030
3089 3087 3086 3085 3084 3083 3082 3082 3081 3080 3079 3077 3076 3074 3073 3072 3070 3069 3067 3065 3063 3061 3059 3058 3056 3054 3053 3051 3049 3048 3046 3044 3043 3041 3039 3037 3035 3033 3031 3029 3026 3024
3084 3083 3082 3081 3080 3079 3078 3078 3077 3076 3074 3073 3071 3070 3069 3067 3066 3064 3062 3060 3058 3057 3055 3053 3051 3049 3048 3046 3045 3043 3042 3040 3038 3036 3034 3032 3030 3028 3026 3023 3021 3019
3080 3079 3078 3077 3076 3075 3074 3073 3072 3071 3070 3068 3067 3065 3064 3063 3061 3059 3058 3056 3054 3052 3050 3048 3046 3045 3043 3042 3040 3039 3037 3035 3033 3031 3029 3027 3025 3023 3020 3018 3016 3014
3076 3075 3073 3072 3071 3070 3070 3068 3067 3066 3065 3064 3062 3061 3059 3058 3056 3055 3053 3051 3049 3047 3045 3043 3042 3040 3039 3037 3036 3034 3032 3030 3028 3026 3024 3022 3020 3018 3016 3013 3011 3009
3071 3070 3069 3068 3067 3066 3065 3064 3063 3062 3061 3059 3058 3056 3055 3053 3052 3050 3048 3046 3044 3043 3041 3039 3037 3036 3034 3033 3031 3029 3028 3025 3023 3021 3019 3017 3015 3013 3011 3008 3006 3004
3067 3066 3065 3063 3062 3062 3060 3059 3058 3057 3056 3055 3053 3052 3050 3049 3047 3045 3043 3042 3040 3038 3036 3034 3033 3031 3030 3028 3026 3024 3022 3020 3018 3016 3014 3011 3010 3007 3005 3003 3001 2998
3062 3061 3060 3059 3058 3057 3056 3055 3054 3053 3052 3050 3049 3047 3046 3044 3043 3041 3039 3037 3036 3034 3032 3030 3028 3027 3025 3023 3021 3019 3017 3015 3013 3011 3009 3007 3004 3002 3000 2998 2996 2993
3058 3057 3056 3055 3054 3052 3051 3050 3049 3048 3047 3046 3044 3043 3041 3039 3038 3036 3035 3033 3031 3030 3028 3026 3024 3022 3021 3019 3016 3014 3012 3010 3008 3006 3004 3002 2999 2997 2995 2992 2990 2987
3053 3052 3051 3050 3049 3048 3047 3046 3045 3044 3043 3041 3040 3038 3036 3035 3033 3032 3030 3028 3027 3025 3023 3021 3020 3018 3016 3014 3012 3010 3007 3005 3004 3001 2999 2997 2994 2992 2990 2987 2984 2982
3049 3048 3047 3046 3045 3044 3043 3042 3041 3040 3038 3037 3035 3034 3032 3031 3029 3028 3026 3024 3022 3021 3019 3017 3015 3013 3011 3009 3007 3005 3003 3001 2999 2996 2994 2992 2989 2987 2984 2982 2979 2976
3044 3043 3042 3041 3041 3040 3039 3038 3037 3035 3034 3032 3031 3029 3027 3026 3025 3023 3022 3020 3018 3016 3014 3012 3010 3008 3006 3004 3002 3000 2998 2996 2994 2991 2989 2987 2985 2982 2980 2977 2974 2971
3039 3038 3038 3037 3036 3035 3034 3033 3032 3030 3029 3028 3026 3025 3023 3022 3020 3019 3017 3015 3013 3011 3010 3007 3005 3003 3001 2999 2997 2995 2993 2991 2989 2987 2985 2983 2980 2977 2975 2972 2969 2966
3035 3034 3033 3032 3032 3031 3030 3028 3027 3026 3025 3023 3022 3020 3019 3017 3016 3014 3012 3010 3008 3006 3005 3003 3000 2998 2997 2995 2992 2990 2988 2986 2984 2982 2980 2978 2975 2972 2970 2967 2964 2961
3030 3029 3028 3028 3027 3026 3025 3024 3023 3022 3020 3019 3017 3016 3014 3013 3011 3010 3008 3006 3004 3002 3000 2998 2996 2994 2992 2990 2988 2985 2983 2981 2980 2977 2975 2973 2970 2967 2964 2961 2958 2955
3025 3024 3024 3023 3022 3021 3020 3019 3018 3017 3016 3014 3013 3011 3010 3008 3006 3005 3003 3001 2999 2997 2995 2993 2991 2989 2987 2985 2983 2981 2978 2976 2974 2972 2970 2967 2964 2962 2959 2956 2952 2949
3020 3020 3019 3018 3017 3016 3016 3014 3013 3012 3011 3009 3008 3007 3005 3004 3002 3000 2999 2996 2994 2992 2990 2988 2986 2984 2982 2980 2978 2976 2973 2971 2969 2967 2964 2961 2959 2956 2953 2950 2947 2943